User: anonymous   Login
Location: Theydon Bois
(51.6750°N, 0.1050°E)
Time: 02:53:38
(UTC+01:00)
Language:

Thor Agena Rocket - Orbit

View from above orbital plane
View from above orbital plane
View from above satellite
View from above satellite

Ground track
Ground track

The orbit data is extracted from the following two-line orbital elements,

1   733U 64002A   18201.55790315 -.00000001 +00000-0 +17350-4 0  9994
2   733 099.1043 052.2809 0034861 101.6043 258.9055 14.32326045838917
Epoch (UTC): 20 July 2018 13:23:22
Eccentricity: 0.0034861
inclination: 99.1043°
perigee height: 759 km
apogee height: 809 km
right ascension of ascending node: 52.2809°
argument of perigee: 101.6043°
revolutions per day: 14.32326045
mean anomaly at epoch: 258.9055°
orbit number at epoch: 83891

The dashed part of the orbit path shows where the satellite is in the earth's shadow,  

DLR